TRANSPORTER-15 DK (66771 NORAD) Tracking and Keplerian Element Data

This shows tracking and keplerian element data for the satellite.

Feedback or suggestion? Click here.




ElementValue
Catalog66771
NameTRANSPORTER-15 DK
Epoch Orbit325
Epoch Day354.17582589
Epoch Year2025
RAAN65.8526
Inclination97.4468
Eccentricity0.0002974
Argument of Perigee118.6079
Mean Anonmoly241.5455
Mean Motion15.18436711
Decay Rate0.00010696
L11 66771U 25276DK 25354.17582589 .00010696 00000+0 52237-3 0 9996
L22 66771 97.4468 65.8526 0002974 118.6079 241.5455 15.18436711 3256



Live tracking and technical data element details for TRANSPORTER-15 DK (NORAD 66771). TRANSPORTER-15 DK can be tracked NOW for your location showing map with azimuth and elevation plus other details from your city location.







IsCatalogInMostPopularTable: catalog: 66771, numindb: 16
Update: records affected: 1



GetName: 66771 TRANSPORTER-15 DK

Hit Count: updated at: Mon, 20 Apr 2026 08:57:00 GMT